User: anonymous   Login
Location: Hartman Creek State Park
(44.3257°N, 89.2134°W)
Time: 15:47:06
(UTC-05:00)
Language:

Terra - Orbit

View from above orbital plane
View from above orbital plane
View from above satellite
View from above satellite

Ground track
Ground track

The orbit data is extracted from the following two-line orbital elements,

1 25994U 99068A   16212.28264690  .00000002  00000-0  10470-4 0  9998
2 25994  98.2078 285.9716 0001072  60.5771 299.5531 14.57119330883792
Epoch (UTC): 30 July 2016 06:47:00
Eccentricity: 0.0001072
inclination: 98.2078°
perigee height: 702 km
apogee height: 703 km
right ascension of ascending node: 285.9716°
argument of perigee: 60.5771°
revolutions per day: 14.57119330
mean anomaly at epoch: 299.5531°
orbit number at epoch: 88379

The dashed part of the orbit path shows where the satellite is in the earth's shadow,  

DLR